Temp
17 17 17 18 18 18 18 18 18 18 19 19 19 19 19 19 19 19 19 19 19 19 20 20 20 20 19 19 19 20 20 20 20 19 18 16 16 17 18 18 18 19 20 20 21 21 21 22 21 21 22 22 20 19 19 17 17 19 21 20 20 20 20 20 20 19 19 19 19 16 15 16 17 14 12 12 12 13 12 11 11 11 10 9 9 9 10 8
17 17 17 18 18 18 18 18 18 19 19 19 19 19 19 19 19 19 19 19 19 19 20 20 20 20 20 20 20 20 20 20 20 19 18 17 18 18 19 19 19 20 20 20 21 21 22 22 21 21 22 22 19 19 19 18 18 19 20 20 20 20 19 19 19 19 18 19 18 16 14 14 17 16 13 14 16 13 13 13 11 11 11 9 9 9 9 8
17 17 18 18 18 18 18 18 19 19 19 19 19 19 19 19 19 19 19 19 20 20 20 20 20 20 20 20 20 20 20 20 20 19 18 18 18 19 19 19 19 20 20 20 20 20 21 21 20 21 22 21 19 19 20 18 18 19 19 20 21 19 19 18 18 18 17 17 17 17 14 13 15 15 14 15 16 14 15 15 13 12 12 9 9 9 9 9
17 17 18 18 18 18 18 19 19 19 19 19 19 19 19 19 19 19 19 20 20 20 21 21 20 20 20 20 20 20 20 21 19 17 18 18 18 19 19 19 20 20 20 20 20 20 20 20 20 20 21 21 19 19 20 18 17 18 18 21 20 17 18 19 17 16 15 14 16 16 13 14 14 13 14 14 15 16 17 17 15 15 14 10 9 10 9 9
17 18 18 18 18 18 19 19 19 19 19 19 20 19 19 19 20 20 20 20 20 20 21 21 21 20 20 20 20 19 20 21 19 17 18 18 19 19 19 20 20 20 20 20 20 20 20 20 21 20 21 21 20 20 19 16 16 18 19 19 17 16 18 18 15 14 13 13 14 14 14 15 13 12 14 14 15 18 18 16 15 16 15 11 10 10 9 9
18 18 18 18 18 19 19 19 19 19 20 20 20 19 19 19 20 20 20 20 20 20 20 20 20 20 20 20 20 20 20 20 18 17 18 18 19 20 20 20 20 20 20 20 20 20 20 21 21 21 20 20 19 19 18 15 15 18 19 17 16 16 17 17 14 12 12 13 14 14 14 13 13 14 13 13 15 17 14 12 12 13 14 12 10 10 9 9
18 18 18 19 18 19 19 19 20 20 20 20 20 20 20 20 20 20 20 20 20 20 20 20 20 20 20 20 20 20 19 18 17 17 18 19 20 20 20 20 20 20 20 20 20 21 20 21 22 19 20 20 18 18 16 15 15 17 19 17 15 14 15 16 13 11 11 13 15 13 13 13 14 14 12 12 15 16 13 10 10 11 12 11 10 9 9 9
18 18 18 18 18 19 19 19 20 20 20 20 20 20 20 20 20 20 20 19 20 20 20 20 20 20 20 20 20 20 18 17 17 17 18 19 20 20 20 20 20 20 20 19 19 20 19 20 20 18 20 19 17 17 15 15 17 17 18 16 14 13 15 15 12 11 11 12 13 11 13 14 14 13 11 12 16 16 13 11 10 10 10 10 9 9 10 9
18 18 18 18 18 19 19 19 20 20 20 20 20 20 20 20 20 20 20 19 20 20 20 20 20 20 21 20 20 20 18 17 17 17 18 19 20 19 20 20 20 20 20 19 18 19 20 19 18 18 20 17 16 17 15 17 18 16 16 16 15 15 15 14 12 11 11 12 12 12 15 14 12 11 12 15 15 13 12 10 10 9 9 9 9 9 9 9
18 18 18 18 18 19 19 19 19 20 20 20 20 20 20 20 20 20 20 20 20 20 20 20 20 20 21 20 20 20 18 17 17 17 18 19 19 19 20 20 19 20 19 19 18 18 19 19 18 18 18 17 16 16 14 16 17 14 14 14 14 15 14 13 13 12 11 13 12 13 15 14 11 11 15 16 11 10 11 9 9 9 9 8 8 8 9 8
18 18 18 18 18 19 19 19 19 19 20 20 20 20 20 20 20 20 20 20 20 20 20 20 20 20 20 20 20 19 17 17 16 17 18 19 19 19 19 19 19 19 19 19 17 16 17 17 16 17 18 17 16 15 14 14 14 12 13 15 14 14 14 13 14 13 13 14 12 12 14 13 11 11 16 14 8 10 11 9 8 8 8 8 7 7 8 7
18 18 18 18 19 19 19 19 19 19 19 20 20 20 20 20 20 20 20 20 20 20 20 20 20 20 20 20 19 18 17 17 16 17 18 18 19 18 18 18 18 19 19 19 17 16 16 16 17 18 17 16 17 16 14 12 12 12 13 16 17 17 16 14 13 12 13 14 11 11 13 13 12 14 16 11 8 10 10 8 8 8 8 7 7 7 7 6
18 18 18 19 19 19 19 19 19 19 20 20 20 20 20 20 20 20 20 20 20 20 20 20 20 20 20 19 18 17 18 17 17 17 17 18 18 18 18 18 18 18 18 18 16 16 16 16 17 17 15 16 17 15 13 12 12 14 14 15 17 18 17 14 13 13 14 14 11 12 15 15 15 17 15 10 9 10 10 9 8 7 7 7 7 6 6 6
18 18 18 19 19 19 19 19 19 20 20 20 20 20 20 20 20 20 20 20 20 20 20 20 20 20 20 18 18 18 18 17 17 17 17 18 18 18 17 17 18 17 18 18 16 16 16 16 17 16 14 14 14 13 14 14 14 16 15 15 17 17 17 15 13 14 15 13 11 13 15 16 17 17 13 9 10 10 11 10 8 7 7 6 7 6 6 6
18 19 19 19 19 19 19 19 19 20 20 20 20 20 20 20 20 20 20 20 20 20 20 20 20 20 19 18 18 18 18 17 17 16 16 17 17 17 17 17 17 17 17 17 16 16 16 17 17 16 15 12 13 15 17 17 16 16 16 16 17 16 16 16 13 13 15 13 12 14 14 15 17 16 12 9 10 10 10 10 8 7 6 6 7 6 5 5
18 19 19 19 19 19 19 19 19 19 20 20 20 20 20 20 20 20 20 20 20 20 20 20 20 20 20 19 18 18 17 17 17 16 15 16 16 16 17 17 17 17 17 16 17 16 16 17 13 13 15 14 14 17 18 18 17 16 16 16 16 15 15 16 13 11 12 13 13 13 13 14 15 16 13 9 9 10 10 10 8 7 6 6 6 5 5 4
19 19 19 19 19 20 19 19 19 19 20 20 20 20 20 20 20 20 20 20 21 20 20 20 19 19 20 18 18 18 16 16 17 16 15 16 16 16 17 17 16 15 16 16 17 17 16 16 12 12 15 15 15 17 18 17 16 16 16 15 15 14 14 15 14 11 11 12 13 13 13 13 14 15 13 9 9 9 10 10 8 7 6 6 6 5 4 4
19 19 19 19 19 20 20 20 20 20 20 20 20 20 20 20 20 20 20 20 21 20 21 20 19 20 19 18 17 16 15 16 16 16 15 16 16 16 16 16 16 16 17 18 17 17 17 16 16 17 17 15 15 15 16 15 14 15 14 14 14 14 14 14 15 13 12 12 12 13 13 13 14 14 11 8 8 8 8 8 7 7 6 6 5 5 4 4
19 19 19 19 20 20 20 20 21 21 20 21 21 20 20 20 20 20 19 19 19 19 20 18 17 19 18 17 16 15 15 15 16 16 15 15 15 16 15 15 16 17 18 19 18 15 16 17 17 17 16 14 13 13 14 13 13 13 13 12 12 13 13 14 15 13 11 11 12 13 13 13 13 11 8 7 7 7 7 7 7 6 6 5 5 5 4 3
19 19 20 20 20 20 21 21 21 21 21 21 20 20 21 21 20 19 16 16 15 15 16 15 15 16 17 16 15 15 16 16 17 16 15 15 15 16 16 16 17 17 15 16 16 14 14 16 15 14 14 12 11 11 11 11 11 11 12 12 12 13 13 14 14 12 10 11 12 13 12 12 12 8 6 7 7 6 6 6 6 6 6 5 4 4 3 2
19 20 20 20 20 20 21 21 21 21 21 21 21 20 20 20 20 19 16 14 12 12 14 14 13 15 15 15 14 13 15 17 18 16 15 15 15 17 17 16 17 17 13 11 13 13 14 15 14 12 11 10 10 9 10 10 11 11 12 13 13 13 13 14 14 12 10 11 12 13 12 12 10 6 5 6 5 4 5 6 6 5 5 4 4 3 2 2
20 20 20 20 20 20 21 21 21 21 21 21 20 18 17 17 18 18 17 17 15 13 14 13 13 15 14 14 13 12 14 16 17 17 15 15 16 17 16 15 16 15 13 12 14 16 16 15 13 11 9 9 9 9 9 10 11 12 13 13 13 14 13 13 13 12 11 11 12 12 11 11 8 5 5 4 4 4 3 4 5 5 4 3 3 2 3 3
20 20 20 20 20 20 21 21 21 21 21 21 20 17 16 16 17 17 18 19 17 14 14 15 15 15 15 15 14 13 15 15 15 16 14 14 15 14 14 15 15 14 14 15 17 18 16 14 11 8 8 10 11 11 11 12 13 13 13 13 13 13 12 12 13 13 11 11 11 11 11 11 8 6 5 4 4 3 3 3 3 3 3 3 3 3 3 2
20 20 20 20 20 21 20 20 21 21 21 20 19 17 17 17 17 17 18 17 17 16 14 14 14 14 15 14 13 14 15 14 13 15 13 12 13 12 13 12 14 16 13 12 15 16 15 12 9 7 8 11 13 13 12 13 14 14 13 12 12 12 11 11 12 12 12 10 9 10 13 12 9 7 5 4 4 3 3 3 2 3 3 3 3 3 2 2
20 20 20 20 21 21 20 21 20 20 20 19 18 17 17 18 17 18 18 17 18 17 15 14 14 15 14 14 14 13 14 13 13 13 12 11 12 13 13 11 13 16 13 12 14 15 14 9 7 10 11 11 13 13 12 12 13 13 12 11 11 11 11 11 11 11 12 12 10 10 12 12 11 7 5 4 3 2 3 2 2 3 3 3 3 2 2 1
20 20 20 21 21 21 21 21 19 19 19 18 17 17 17 18 17 17 19 19 19 18 17 17 16 16 15 14 12 11 14 15 13 12 12 11 10 12 14 12 13 14 12 11 13 14 13 9 8 11 12 13 14 14 11 10 12 13 12 10 10 10 10 11 11 10 11 12 11 10 10 11 12 8 4 4 3 2 3 2 2 3 2 3 2 2 1 0
20 20 20 21 21 21 21 21 19 19 19 18 17 17 17 17 17 17 19 20 19 17 17 18 17 16 16 14 11 12 17 16 13 13 12 12 11 12 14 13 13 13 10 10 14 14 12 11 11 12 13 14 14 13 11 10 11 13 12 10 10 10 10 10 10 10 11 11 10 11 10 10 12 9 4 4 4 2 2 2 2 2 2 2 2 1 0 -1
20 20 21 21 21 21 21 21 20 19 18 18 17 17 17 17 17 18 19 20 19 17 17 17 17 16 15 13 13 14 15 13 14 15 12 12 12 13 15 13 13 13 10 11 16 14 11 12 12 11 14 14 13 13 11 9 10 12 12 11 10 10 10 10 10 10 10 10 11 12 11 10 11 10 6 6 5 2 2 2 2 2 2 1 0 -0 -0 -0
20 20 21 20 21 21 20 21 20 18 18 18 17 17 17 17 18 19 20 20 18 17 16 16 17 15 13 13 14 13 12 12 13 14 12 12 13 13 13 12 11 13 11 12 15 12 10 10 9 10 13 12 12 12 10 9 11 12 10 10 10 10 10 9 10 10 9 9 11 11 11 9 9 10 8 7 5 2 2 2 1 1 1 0 -0 -0 1 1
20 20 20 20 20 20 20 20 18 18 17 17 17 17 17 18 19 20 20 19 18 17 15 16 16 13 12 15 15 12 12 12 10 11 12 12 13 13 10 8 11 13 12 13 14 11 9 8 7 9 11 11 11 10 9 9 10 10 10 11 12 11 10 8 9 10 10 11 11 10 10 9 8 8 6 4 3 1 1 2 1 0 -0 -0 0 0 1 1
19 19 20 20 19 19 19 18 17 17 17 17 17 17 18 19 19 20 20 17 17 16 15 14 13 11 11 14 15 12 12 12 10 11 13 12 12 13 11 10 12 14 15 15 14 13 10 10 10 9 8 9 10 10 9 8 9 11 11 12 13 12 11 10 10 11 10 11 10 10 10 8 8 8 4 1 1 1 1 1 -0 -0 -0 0 1 1 1 1
18 19 19 19 19 18 19 17 16 17 17 17 17 17 19 20 19 19 18 16 17 16 14 13 11 11 11 12 13 11 11 12 11 10 10 11 11 10 11 11 10 14 16 14 14 15 13 12 11 9 8 8 10 12 11 9 11 12 11 12 12 11 10 10 11 10 10 10 10 10 9 8 9 7 3 1 1 1 1 0 -1 -1 -0 0 1 1 0 0
18 18 18 18 18 18 17 16 16 17 17 17 17 19 20 20 19 17 15 17 16 13 11 11 11 10 11 14 13 10 10 12 11 10 10 11 11 9 9 9 8 12 15 13 13 15 14 12 11 11 10 9 10 12 12 11 11 11 10 10 10 9 8 8 9 9 9 10 10 10 9 8 9 6 2 2 2 1 1 0 -0 -0 0 1 0 0 -0 -0
17 17 18 17 17 17 16 16 17 17 17 17 19 20 20 20 18 14 15 16 13 11 10 10 11 12 12 14 12 9 12 12 11 11 12 12 12 11 10 10 9 10 11 12 11 11 13 14 12 12 11 10 10 10 9 10 10 10 10 10 9 8 6 7 8 8 7 8 9 9 8 7 8 6 3 3 2 2 2 1 1 1 0 0 0 -0 -0 -1
17 17 18 17 17 16 16 16 17 17 17 18 19 20 20 19 16 15 16 14 11 12 11 9 12 15 14 13 10 8 11 13 10 11 12 11 11 11 10 9 9 8 10 12 11 9 13 14 12 10 9 10 10 8 7 9 10 10 10 10 9 8 7 7 8 8 6 6 8 8 8 8 6 3 3 3 2 2 2 2 1 0 0 0 -0 -1 -1 -2
17 17 18 17 16 15 16 16 16 17 17 19 20 20 18 16 15 14 13 11 11 12 12 12 14 16 16 14 12 10 10 11 11 11 11 10 10 10 9 8 8 7 9 11 10 9 13 14 12 10 9 9 8 8 8 8 10 11 9 9 8 7 8 7 7 8 7 6 8 9 8 9 7 4 2 2 3 3 2 1 0 -0 -0 -0 -1 -1 -2 -3
18 18 17 16 15 15 15 16 17 17 18 19 21 18 14 12 11 11 9 9 9 9 13 16 14 13 15 15 14 13 11 11 12 13 13 11 10 9 8 8 7 6 7 8 9 9 10 13 12 10 10 9 5 7 8 7 9 10 9 8 7 6 7 7 6 7 7 6 8 8 7 7 7 5 3 3 3 3 2 1 -0 -0 -0 -1 -1 -2 -3 -3
18 18 17 15 15 16 15 16 17 17 18 19 17 14 11 10 8 7 7 7 8 9 14 16 13 11 13 14 14 12 11 13 13 12 13 12 11 9 8 8 7 6 5 6 9 9 8 12 12 9 9 9 6 7 9 8 8 9 9 8 7 6 7 7 6 5 5 5 6 7 6 6 6 6 4 4 3 2 1 0 -0 -1 -1 -1 -2 -2 -3 -3
17 18 17 16 16 16 16 17 16 17 19 19 16 13 11 9 7 5 5 6 8 11 14 14 12 11 11 12 13 11 10 12 13 12 13 13 11 9 7 8 8 6 5 5 9 9 7 11 13 9 8 9 9 10 11 9 8 9 9 7 7 6 6 6 5 5 5 5 5 5 5 6 6 6 4 3 2 1 0 -0 -1 -1 -1 -1 -2 -3 -3 -3
16 18 18 16 16 17 16 17 17 17 19 16 13 11 10 9 7 4 3 5 8 10 13 13 11 12 12 10 11 10 9 10 10 12 13 12 11 9 6 6 7 7 5 5 7 8 8 9 11 11 10 10 11 11 10 10 9 8 8 6 5 6 6 5 5 5 4 4 4 3 3 5 6 5 4 3 2 1 0 -1 -1 -1 -1 -1 -2 -3 -3 -4
16 19 18 15 16 17 16 17 14 12 13 12 10 10 9 8 8 5 3 4 6 8 9 11 11 12 12 11 10 9 9 10 10 11 12 11 11 10 6 3 4 5 6 7 8 8 8 9 9 11 11 12 11 9 7 9 8 8 7 6 5 5 5 5 5 4 3 3 4 2 1 4 6 5 4 4 2 1 0 -0 -1 -1 -2 -2 -2 -3 -3 -4
17 19 17 15 17 16 17 16 9 6 10 11 9 9 8 8 8 7 5 5 7 8 8 10 10 10 11 11 10 9 9 11 10 10 11 10 10 10 4 -1 -0 2 5 8 8 6 7 8 8 9 11 12 9 6 5 7 7 7 6 5 5 4 4 5 5 4 3 3 4 3 2 4 6 5 5 4 2 1 1 0 -1 -1 -2 -2 -2 -3 -4 -4
19 19 17 15 16 16 17 16 10 8 10 8 6 7 7 8 9 7 7 7 8 9 10 10 9 10 10 10 9 9 10 11 11 10 10 10 9 6 0 -2 -1 1 4 8 7 5 6 7 7 9 12 11 7 4 5 5 6 6 5 4 4 3 3 4 3 2 2 3 3 2 1 4 6 6 6 5 3 1 1 0 -1 -1 -2 -2 -3 -4 -4 -5
17 16 15 16 16 17 19 19 14 11 9 8 8 8 7 7 8 8 9 9 9 10 11 11 9 9 9 7 8 9 10 11 11 9 9 10 7 1 -3 -3 -0 2 5 7 6 5 7 8 9 10 11 11 8 7 7 6 7 7 5 2 2 2 2 2 1 0 1 2 3 2 1 4 6 6 6 5 3 1 1 -0 -1 -2 -2 -3 -3 -4 -5 -6
16 16 16 15 14 15 16 14 14 13 10 10 11 9 9 9 7 7 9 8 7 8 11 10 8 8 7 6 8 8 8 10 11 9 7 8 6 1 -3 -3 -1 2 4 2 1 3 7 9 9 10 10 10 10 10 10 9 9 8 5 2 1 1 1 2 2 1 2 3 2 1 2 4 5 5 5 4 2 1 -0 -1 -1 -2 -2 -3 -4 -5 -5 -6
18 19 18 17 14 11 10 7 10 14 12 12 13 10 10 11 8 5 7 8 6 6 9 9 7 8 8 8 9 9 8 8 8 9 9 9 8 4 -1 -3 -2 0 2 0 -1 2 6 7 8 9 10 9 9 10 10 10 8 7 6 4 1 -1 -1 1 2 3 3 2 1 2 2 3 3 4 3 2 1 -0 -1 -1 -2 -2 -3 -3 -4 -5 -6 -7
18 19 17 17 16 14 12 9 11 13 12 13 15 12 10 12 10 8 8 8 7 6 8 8 7 9 10 9 10 11 9 7 8 9 9 7 7 4 -0 -1 -1 -1 1 0 -1 2 7 8 7 7 8 8 9 8 8 8 7 6 6 4 2 -0 -1 0 2 3 3 1 1 3 3 2 2 3 3 1 -0 -1 -1 -2 -2 -2 -3 -4 -5 -6 -7 -7
15 16 10 11 15 16 15 13 11 11 11 12 11 10 11 12 12 12 10 7 6 7 9 10 9 10 10 10 11 12 10 9 10 9 8 6 6 6 4 2 2 1 1 2 1 3 7 8 5 5 6 6 6 7 7 6 5 5 4 4 3 1 -0 -0 1 2 2 0 1 3 3 2 2 2 2 0 -0 -1 -2 -2 -2 -3 -3 -5 -6 -7 -7 -8
12 13 8 7 11 11 9 9 9 11 12 11 11 11 12 14 13 12 9 9 9 8 9 12 12 10 9 8 10 12 11 12 12 10 8 7 6 6 7 6 4 2 2 4 2 2 6 7 5 3 4 5 6 6 6 5 5 4 4 4 3 2 1 1 1 1 1 1 2 2 2 1 2 2 1 0 -0 -1 -2 -2 -3 -3 -4 -5 -7 -8 -8 -9
13 15 12 10 10 8 6 7 9 14 13 11 13 12 11 14 14 11 8 10 13 11 9 12 13 9 7 7 9 11 11 11 12 10 8 8 7 6 7 9 7 3 3 4 2 1 5 7 4 2 4 6 7 6 5 5 4 4 4 3 3 2 1 1 1 1 1 1 2 2 1 2 3 2 0 0 -0 -1 -2 -2 -3 -4 -5 -6 -7 -8 -9 -9
13 12 12 15 14 9 8 9 10 15 16 14 15 13 11 14 14 11 10 9 10 12 10 12 12 8 6 6 8 10 10 9 10 9 8 8 8 7 7 8 7 5 5 4 2 3 5 5 3 2 6 8 7 5 5 4 2 2 2 3 2 2 2 2 2 2 1 1 1 1 1 2 2 1 -0 -0 -1 -2 -2 -3 -4 -4 -5 -7 -8 -9 -9 -10
11 11 11 16 16 9 8 10 10 14 17 14 13 11 11 12 11 11 13 9 6 8 8 9 11 9 7 9 9 9 8 7 7 6 5 6 6 5 5 6 5 6 6 4 2 1 2 4 5 4 6 9 7 5 5 4 3 5 5 4 3 3 3 3 2 3 3 2 1 1 1 2 1 0 -1 -1 -2 -3 -3 -4 -4 -5 -6 -8 -9 -9 -10 -10
Height
836 835 834 835 835 835 835 835 835 834 833 833 833 834 833 833 833 832 832 831 831 831 831 831 831 831 831 831 830 830 830 829 828 827 829 834 836 833 831 828 826 824 824 823 823 823 822 822 822 822 822 823 826 827 829 830 830 829 830 835 835 834 834 832 831 833 833 829 828 832 835 832 828 832 838 838 836 836 837 838 839 838 838 838 838 839 839 840
837 836 836 836 836 836 835 835 835 834 833 833 834 834 834 834 833 833 832 831 831 831 831 831 831 830 830 830 830 830 830 830 828 829 833 835 834 832 830 827 825 824 824 824 823 823 822 823 823 822 822 824 827 828 828 830 831 831 834 837 834 832 832 831 831 831 833 831 829 832 835 834 829 830 837 834 830 835 834 832 837 836 835 837 838 839 839 840
837 837 837 837 837 836 836 835 834 834 834 834 834 834 834 834 834 833 832 832 831 831 831 831 830 829 829 830 830 829 830 829 828 832 835 835 833 831 830 827 826 825 824 824 824 823 823 824 823 823 823 825 829 829 828 831 832 833 836 834 831 832 832 831 832 832 832 833 830 830 835 836 832 833 837 833 829 832 829 825 831 830 829 834 836 838 839 840
838 837 837 837 837 837 836 835 834 834 834 834 835 834 835 834 834 833 833 832 832 832 832 831 830 828 829 829 829 829 829 828 832 837 836 834 833 831 830 828 827 826 825 825 824 824 823 824 823 824 824 826 830 830 830 833 834 835 835 831 831 836 834 830 833 834 835 837 833 831 836 835 833 837 836 834 831 824 818 817 820 820 823 831 835 837 838 839
838 837 837 837 837 836 836 835 835 835 835 835 835 835 835 835 834 834 833 833 832 832 831 831 830 829 829 828 829 829 828 833 839 839 836 835 833 832 830 829 828 826 826 825 824 824 824 824 823 824 825 826 829 829 832 836 837 834 831 831 834 837 834 830 835 839 839 839 837 835 834 832 835 838 834 835 831 818 813 817 818 818 820 827 832 835 837 838
838 837 837 837 837 836 836 836 835 835 835 835 835 835 835 835 835 834 834 833 832 832 831 831 831 830 830 829 829 827 830 839 843 839 837 836 833 833 831 830 828 827 826 825 825 824 823 823 823 826 826 828 831 831 834 837 838 833 829 834 837 837 835 832 838 841 841 839 835 833 832 834 837 834 834 836 827 816 817 821 822 822 823 826 830 833 835 837
838 838 837 837 837 837 836 836 836 836 836 835 835 835 835 835 835 834 834 833 832 832 831 831 831 831 831 830 830 829 833 842 843 840 838 836 834 833 831 831 829 828 827 825 825 824 824 823 823 828 828 829 834 834 836 838 837 835 831 834 837 840 837 833 840 842 842 838 834 835 835 836 836 833 837 834 820 816 821 823 825 825 825 827 829 832 835 838
838 838 837 837 837 837 836 836 836 836 835 836 836 835 835 835 835 835 834 834 833 831 831 831 832 832 831 831 830 831 838 843 843 840 838 836 835 834 832 832 830 829 827 825 826 824 824 825 826 829 828 831 835 834 838 836 834 835 833 834 838 840 836 835 841 843 843 839 837 839 836 834 835 837 839 828 816 817 821 823 825 827 828 829 831 834 838 841
838 837 837 838 837 837 836 836 836 836 836 836 835 835 835 835 835 835 835 834 833 832 832 832 832 832 831 832 830 834 844 845 843 840 837 836 835 834 833 832 830 829 828 826 827 824 824 827 828 829 828 833 836 835 839 834 831 835 836 836 838 837 835 838 840 843 843 839 840 839 833 834 838 840 832 819 818 821 823 825 827 829 831 832 834 838 840 843
838 838 838 838 837 837 836 836 836 836 836 836 836 836 835 835 835 835 835 835 834 833 833 832 833 832 832 831 830 839 847 845 843 840 837 836 835 834 833 832 831 830 828 828 827 826 826 827 829 828 829 834 836 838 840 836 834 839 839 838 839 837 837 840 840 842 842 838 840 837 832 833 839 840 824 815 824 826 825 828 831 832 833 836 838 840 843 845
839 839 838 838 837 837 837 836 836 836 836 836 836 836 836 836 835 836 836 836 836 835 834 834 834 833 833 831 833 843 847 844 843 840 837 836 834 834 833 832 831 830 829 829 829 829 829 829 830 830 830 834 836 839 841 839 839 842 841 837 837 837 837 840 840 841 840 835 839 839 836 836 840 838 822 820 830 828 828 832 834 835 836 839 840 842 845 847
839 839 838 838 837 837 837 837 837 837 837 836 836 836 836 836 836 836 836 836 836 836 835 834 834 835 833 832 839 847 846 845 843 839 837 836 834 834 833 832 832 831 831 830 830 830 831 831 831 831 834 836 835 838 840 842 843 843 841 834 831 831 833 840 841 842 840 835 840 839 833 833 835 829 820 826 832 830 832 835 836 838 838 841 842 844 847 849
840 839 839 838 838 838 838 838 838 837 837 837 837 837 837 837 836 837 836 836 836 836 836 835 835 835 833 838 845 847 846 845 842 839 837 835 835 834 833 833 832 832 832 831 832 832 832 832 832 834 838 837 837 841 841 844 843 840 841 838 832 828 832 841 843 841 837 836 841 839 830 826 823 819 821 831 833 832 833 835 837 839 841 843 844 847 850 853
840 839 840 839 839 839 839 839 838 837 837 837 837 837 837 837 837 837 837 837 837 837 837 836 836 835 835 842 847 846 846 845 842 838 836 835 835 834 834 834 833 833 833 833 833 833 834 834 833 835 840 841 842 843 841 841 841 837 839 838 835 834 833 836 841 839 835 838 842 840 835 824 817 818 826 833 834 833 832 834 838 840 843 845 846 850 852 856
840 840 841 840 840 840 840 839 838 837 837 838 838 838 838 838 838 837 837 837 837 837 837 837 837 835 838 844 846 846 845 843 841 839 837 836 836 835 835 834 834 834 833 834 834 835 835 834 835 838 842 844 843 840 837 837 839 839 840 838 836 840 836 833 842 843 838 840 839 840 837 825 819 821 829 836 836 835 833 834 839 842 845 847 849 853 855 859
841 841 841 841 841 841 840 840 839 838 838 839 839 838 838 838 838 838 838 838 838 838 837 837 837 835 840 846 846 845 845 843 842 841 839 838 837 836 835 834 835 835 834 835 835 835 835 835 842 846 844 844 844 839 832 834 838 840 845 846 841 843 840 836 844 849 844 842 839 840 840 831 824 822 829 838 838 837 835 835 841 845 848 850 852 856 859 863
842 842 842 842 841 841 841 840 840 839 839 839 839 839 839 838 838 838 838 838 838 839 837 838 838 836 842 847 847 848 848 846 844 843 841 839 838 837 835 834 834 834 835 835 834 836 836 838 846 847 844 846 847 840 835 843 849 845 848 850 845 846 845 840 842 848 847 844 840 839 839 835 828 825 832 840 841 841 838 838 844 847 850 853 856 859 862 865
842 842 842 842 841 841 841 841 841 840 840 840 840 840 840 840 839 838 839 838 838 838 837 839 838 840 848 850 852 853 850 848 846 843 841 839 838 837 836 835 834 834 834 835 837 838 837 839 842 840 842 848 852 849 850 860 862 857 856 855 852 848 846 843 840 843 846 845 843 838 836 834 829 831 840 846 845 845 843 844 847 849 852 855 858 862 864 867
843 843 842 842 841 841 841 841 841 840 840 840 840 840 840 841 840 839 840 839 841 844 847 850 848 851 856 855 855 854 850 849 846 844 842 840 838 838 837 837 836 835 835 837 840 844 843 841 842 845 852 858 864 866 865 868 868 865 865 864 863 854 846 842 839 845 849 847 842 837 836 833 831 839 849 851 850 849 848 849 850 852 855 858 861 864 867 870
843 843 842 842 841 841 841 841 841 840 840 840 840 841 841 842 844 847 848 847 851 856 857 858 857 858 859 857 856 852 850 849 847 846 843 840 838 838 838 838 836 837 843 848 848 851 849 848 855 863 867 870 874 876 874 874 873 870 866 863 862 857 846 838 838 846 852 848 839 835 837 834 836 850 857 855 853 854 853 852 854 855 858 861 865 868 872 875
843 843 843 842 842 842 841 840 840 840 840 840 840 841 842 843 846 851 854 856 859 860 859 860 860 859 859 859 858 855 853 849 846 846 843 842 839 837 841 842 840 842 853 860 857 853 851 855 867 873 876 879 880 880 879 876 873 870 865 859 855 853 846 838 839 845 851 849 839 834 836 835 845 859 862 860 859 861 860 858 858 859 862 866 869 873 876 878
844 843 843 842 842 842 841 841 840 840 840 840 840 841 843 843 844 847 848 855 861 860 860 861 860 860 860 860 859 857 855 851 847 845 845 844 840 842 847 847 848 853 857 858 853 848 851 862 873 878 882 884 881 881 879 873 869 864 860 857 851 848 846 839 837 843 848 846 838 838 839 839 854 865 866 866 866 868 868 864 864 865 868 871 873 877 878 878
844 844 844 843 843 842 842 841 841 841 840 840 840 842 844 845 846 845 844 851 859 861 861 860 860 861 860 860 860 858 856 858 857 853 851 850 848 851 853 851 853 857 858 855 849 849 856 867 877 884 886 880 874 874 873 867 861 858 858 858 853 851 853 846 837 839 845 846 844 842 837 838 853 861 865 872 871 872 873 871 872 871 872 876 877 879 880 880
844 844 843 843 843 842 842 842 841 841 841 841 842 843 846 846 846 846 847 854 859 860 861 861 861 862 861 861 861 859 858 863 865 861 859 856 855 855 857 861 857 855 865 866 857 857 865 876 884 887 884 876 869 867 869 864 856 857 860 861 860 858 859 854 844 841 841 846 852 844 827 829 845 854 863 873 874 875 877 875 876 877 877 878 879 880 881 882
845 844 844 844 843 842 843 842 842 842 842 843 843 845 846 846 847 846 848 856 859 859 860 861 861 861 863 862 861 862 861 864 867 866 863 861 859 857 860 866 860 857 868 870 862 860 869 883 887 881 876 872 866 863 870 870 861 859 862 866 866 862 859 854 849 847 838 837 847 847 833 825 833 853 867 872 875 878 879 879 879 879 880 880 881 881 882 883
845 844 844 843 842 843 842 842 843 843 843 844 845 847 846 846 848 846 848 856 861 863 862 860 861 862 863 863 863 863 861 863 867 867 865 863 863 861 861 865 864 864 871 871 867 865 873 883 883 876 871 867 861 863 872 875 867 860 863 870 869 865 862 854 851 854 846 839 843 848 848 834 825 848 870 871 875 880 879 881 881 881 882 881 883 883 883 884
844 844 844 843 843 842 841 842 843 843 844 845 846 846 846 847 847 846 851 860 865 868 865 861 862 864 865 866 866 863 863 866 866 866 867 865 864 861 860 865 866 868 876 874 864 867 874 875 876 874 867 862 862 866 872 878 873 862 863 870 866 863 860 854 854 856 851 848 846 844 848 841 825 844 871 869 871 881 881 882 883 882 883 882 884 884 883 882
844 844 843 843 843 842 842 842 842 843 844 845 846 846 847 847 847 847 853 865 871 869 868 865 864 866 867 869 867 866 872 872 867 867 868 867 865 862 861 867 868 869 877 871 859 870 878 873 876 874 865 865 869 870 874 880 875 863 863 865 862 861 857 855 855 853 855 854 843 837 842 843 830 837 860 861 866 881 884 884 885 883 885 885 885 884 881 879
844 843 843 843 842 842 842 841 842 844 844 845 846 846 847 846 846 849 856 868 872 869 870 868 864 869 873 871 872 874 876 876 875 873 870 868 866 863 865 871 872 871 874 869 865 876 880 879 883 878 870 873 873 872 877 880 873 865 867 863 857 858 856 858 855 852 861 853 838 838 844 849 841 833 845 855 866 882 884 883 885 885 887 887 885 882 878 876
844 843 843 842 842 842 842 842 843 843 845 846 845 846 847 846 850 856 862 870 873 872 874 870 871 880 879 872 873 878 879 879 883 878 872 872 869 866 872 874 872 870 869 867 867 877 883 885 888 882 878 879 878 876 879 880 874 868 866 855 846 848 853 861 856 849 852 843 838 846 849 858 856 843 857 872 878 887 886 884 886 887 888 885 882 880 876 874
844 844 843 842 842 842 842 843 844 844 845 845 846 847 846 849 855 860 868 875 875 874 875 877 884 888 885 879 878 882 882 882 886 883 876 877 872 867 870 874 873 865 861 864 866 871 880 880 880 884 885 884 880 876 878 882 876 867 861 848 838 838 845 851 846 844 849 843 846 850 850 860 853 845 870 887 886 889 888 889 890 889 887 883 880 878 874 873
844 843 843 842 842 841 842 843 844 845 845 846 847 846 847 855 860 866 875 876 874 878 881 885 890 890 889 886 886 891 889 885 888 891 888 883 882 884 885 889 891 874 863 872 872 866 871 876 879 885 886 886 879 869 869 874 870 864 859 852 847 847 853 853 845 849 853 846 847 847 852 859 846 848 877 886 885 887 886 889 891 888 886 882 879 876 874 873
845 845 844 843 842 842 842 844 845 845 845 846 846 846 851 857 865 880 884 875 877 888 891 892 893 894 890 883 886 896 894 889 889 891 892 887 887 897 900 901 903 888 874 878 878 869 868 874 879 879 880 884 880 870 868 871 870 870 869 869 871 877 889 884 866 864 859 845 841 843 852 855 842 854 879 881 881 885 884 887 888 886 884 880 877 876 873 872
847 846 845 844 843 843 844 844 845 846 846 846 846 850 855 859 873 889 885 879 888 894 895 897 893 890 889 884 892 899 891 890 893 890 888 887 887 893 897 899 901 898 889 884 889 889 877 871 873 876 878 880 881 881 882 881 879 880 880 880 882 892 906 899 880 878 875 860 850 848 855 856 848 859 875 877 880 882 881 884 883 883 881 878 876 874 872 872
847 847 846 845 844 845 845 845 846 846 845 846 849 853 857 864 878 884 880 885 892 891 894 899 890 881 884 889 898 903 893 889 895 894 890 891 893 896 901 903 903 905 896 885 896 900 882 871 876 882 884 883 883 889 891 886 881 882 882 882 887 894 899 895 884 881 885 877 860 850 850 850 856 870 875 876 879 879 879 880 880 881 879 877 876 873 873 873
847 847 846 846 846 846 845 845 846 846 846 847 849 856 864 874 881 882 886 892 892 890 891 890 885 879 880 886 892 898 899 895 893 892 895 901 903 904 908 908 909 911 903 893 900 901 882 870 875 883 886 888 890 889 890 888 879 878 883 887 894 897 895 894 885 871 875 875 856 846 847 844 852 868 875 876 876 874 876 877 879 879 877 876 875 873 874 873
847 847 847 847 847 846 846 846 846 845 846 846 851 865 880 888 891 893 897 898 897 898 887 878 887 890 886 886 886 890 895 894 891 888 891 900 903 906 910 910 912 915 911 906 905 906 898 878 872 882 882 887 897 893 890 894 885 881 890 893 895 898 895 896 893 881 879 876 855 848 858 856 851 858 868 872 871 871 875 877 878 878 874 873 872 872 874 872
847 847 847 848 847 847 846 845 846 846 846 852 864 881 889 893 898 902 903 902 900 897 885 878 891 899 895 889 887 895 896 886 886 889 889 893 899 907 912 908 911 916 918 914 904 907 910 886 871 885 886 885 896 891 884 891 890 887 893 897 898 902 897 893 901 902 897 887 866 855 862 861 855 857 863 867 870 873 875 876 878 877 874 872 870 871 872 869
847 847 847 849 847 847 846 845 847 846 844 855 873 884 890 895 903 906 906 905 899 892 885 887 895 899 900 896 892 900 903 892 890 893 890 890 896 908 914 911 911 914 917 917 905 905 912 894 875 882 887 884 884 882 879 884 890 889 892 898 901 904 903 903 907 907 902 898 887 872 866 859 853 858 864 867 871 875 876 877 877 875 874 872 870 870 870 867
847 847 848 849 847 847 848 845 847 848 852 868 881 886 892 898 903 908 909 906 901 894 889 892 896 894 897 902 901 902 906 903 899 894 891 895 899 906 917 917 913 914 917 917 911 907 909 903 885 875 878 879 876 879 882 884 889 891 894 905 908 904 905 907 906 907 909 908 900 894 881 859 851 860 865 866 871 874 876 877 874 872 872 870 870 871 870 868
847 847 848 849 847 848 846 847 859 870 873 882 889 891 895 897 900 907 910 907 904 900 896 895 896 894 895 898 901 904 906 904 902 898 894 898 897 900 916 925 920 918 916 909 908 909 907 905 897 884 876 871 875 890 894 890 891 893 898 908 912 910 909 906 904 909 916 911 905 912 901 866 853 862 863 865 871 872 874 874 872 872 872 869 870 871 869 869
847 849 849 848 846 846 845 857 881 890 883 884 890 893 897 897 898 903 906 906 903 901 900 899 898 899 898 896 900 906 904 899 900 899 897 900 899 901 919 932 931 927 918 907 909 916 912 909 908 896 879 873 884 900 901 897 896 898 904 909 911 914 914 911 909 909 913 908 902 911 904 870 855 861 860 862 869 871 871 872 871 871 871 869 869 869 868 868
847 849 849 848 847 847 848 862 884 889 887 893 898 899 899 898 898 901 903 901 899 898 897 898 900 899 898 901 903 903 901 898 898 899 899 901 906 915 927 934 932 928 920 909 912 918 915 912 909 891 872 876 896 906 905 904 902 898 905 912 914 917 917 918 921 922 919 909 901 908 901 870 854 858 857 858 867 871 871 871 871 871 870 869 868 867 867 868
850 850 850 848 846 845 846 856 871 883 891 895 895 897 899 900 899 898 898 896 897 897 893 895 902 900 902 908 906 902 901 897 896 902 904 902 910 925 935 934 929 924 917 911 914 918 910 904 900 887 872 875 886 892 895 898 895 892 905 919 921 921 923 923 927 932 926 910 905 912 897 864 851 855 855 859 866 869 870 872 872 871 869 867 867 867 868 868
850 850 851 850 847 848 853 861 865 875 887 888 887 893 895 897 901 901 897 899 903 901 894 896 904 903 907 911 906 906 908 900 896 904 909 907 911 925 934 934 930 925 921 923 925 921 910 902 898 893 890 888 884 880 880 883 886 891 904 920 925 926 927 921 920 926 920 908 909 911 889 858 850 855 856 860 866 868 869 870 870 869 868 867 867 867 868 868
848 849 851 851 852 855 865 874 869 868 878 879 879 891 892 889 898 904 901 899 904 904 899 901 906 904 905 907 902 902 907 907 904 903 905 904 906 919 930 932 932 928 924 928 930 923 915 910 904 897 897 897 892 886 882 883 890 894 898 910 922 931 932 924 918 914 908 907 909 903 887 867 857 857 858 861 867 870 869 868 867 867 866 866 867 868 868 866
848 851 856 855 854 858 866 874 871 868 874 872 873 886 889 886 893 899 899 899 903 905 902 902 905 899 897 900 897 896 904 909 906 902 905 908 909 917 927 929 929 929 926 928 929 922 911 905 907 907 903 898 894 891 890 893 897 897 899 908 918 929 932 928 919 907 906 916 906 886 882 879 866 861 862 864 869 870 868 867 865 865 866 866 867 867 866 864
851 857 867 863 858 861 863 868 873 873 874 876 882 888 886 884 887 888 892 900 904 903 898 896 899 897 895 897 893 891 899 902 899 901 907 911 913 913 917 922 924 924 925 924 926 923 910 904 914 919 910 904 902 897 894 898 900 900 903 906 911 920 926 924 918 909 911 919 901 879 881 882 869 863 867 869 871 870 868 867 866 865 865 866 866 866 865 864
858 861 871 870 865 872 877 877 879 874 873 878 884 886 881 877 881 886 893 896 896 900 897 888 889 895 898 901 895 890 893 890 888 896 903 906 911 911 909 910 916 923 923 919 923 927 913 905 918 926 917 905 899 895 897 901 903 902 903 903 904 911 916 916 914 910 908 906 893 883 884 878 868 867 870 870 869 868 867 866 865 865 864 865 867 867 865 863
853 852 862 867 870 880 885 884 878 869 872 878 875 879 884 876 876 887 894 890 883 891 898 888 885 896 902 903 898 890 890 888 885 892 900 901 905 909 905 900 907 920 921 918 925 927 914 908 921 931 916 894 889 896 900 900 902 901 900 901 906 909 910 911 910 907 904 898 889 886 884 873 865 868 871 869 867 868 866 865 865 864 864 866 868 868 866 863
848 849 853 854 864 880 881 881 879 867 866 872 869 876 884 876 876 883 888 893 888 886 891 887 885 898 907 905 900 892 892 895 892 893 900 899 898 903 903 900 905 911 914 919 925 922 916 914 922 927 906 882 888 898 895 900 912 912 905 902 905 906 905 903 902 899 898 894 888 887 882 869 862 868 870 868 868 868 866 865 865 863 865 868 869 868 866 863
849 850 851 847 859 880 881 878 878 868 863 870 874 879 882 878 882 883 879 890 897 892 893 891 887 895 900 897 896 894 895 899 900 901 904 903 903 906 905 905 907 906 909 919 925 928 926 915 914 921 902 877 883 893 893 901 899 886 885 891 893 897 897 893 892 890 887 888 887 883 876 868 868 872 871 869 869 868 866 865 864 864 866 869 868 867 865 862
Wind_Speed
8 10 12 11 12 12 11 11 11 10 10 9 9 8 8 9 9 9 8 7 6 4 4 4 5 3 2 1 3 4 7 16 22 26 21 15 23 23 18 18 16 9 5 5 4 3 3 3 2 3 3 1 2 1 1 2 2 2 1 2 3 3 3 2 4 3 3 7 3 0 2 7 5 3 3 1 5 4 3 4 2 2 2 1 0 9 20 23
8 10 11 11 11 11 11 11 10 10 9 9 8 8 8 9 9 9 9 7 7 7 4 2 4 5 4 4 2 3 3 10 18 22 18 21 25 20 18 19 12 4 4 5 4 2 2 3 3 1 1 0 1 1 0 1 3 2 1 3 3 2 2 1 4 3 3 7 5 2 2 5 6 1 3 4 5 3 7 6 5 6 6 4 7 16 21 22
8 9 10 10 11 11 10 10 10 9 8 8 7 7 8 8 8 11 12 9 9 9 7 4 2 5 7 6 5 3 2 4 14 16 19 25 24 19 20 18 11 6 5 4 5 3 3 4 2 1 0 0 2 1 1 2 2 1 1 5 3 2 3 2 4 5 3 5 7 5 1 4 4 1 2 5 7 5 10 9 6 10 10 9 12 19 21 21
8 9 10 10 10 10 10 10 9 8 8 7 6 7 7 7 8 11 14 11 9 10 11 11 11 6 1 5 5 2 3 0 9 14 22 25 21 18 19 16 12 9 7 6 6 5 5 4 3 2 0 0 2 0 1 3 2 1 2 4 2 1 4 1 2 3 2 3 7 5 2 4 1 2 3 3 7 9 11 10 10 12 10 13 14 18 21 21
8 9 10 10 10 10 10 9 9 8 7 5 5 6 6 6 6 9 13 12 8 8 9 12 15 15 11 4 2 4 4 0 6 17 24 23 18 17 17 15 13 10 9 6 5 5 4 3 2 2 1 1 1 1 1 2 1 1 2 2 1 1 4 2 3 1 1 2 5 5 4 3 3 2 6 5 9 9 4 2 7 10 8 16 17 19 20 20
8 9 9 10 10 9 9 9 8 7 5 4 5 5 5 5 5 7 10 11 9 5 6 8 10 13 15 14 10 4 2 2 8 20 24 20 16 15 15 14 13 10 9 6 5 3 3 2 1 0 1 1 1 1 1 1 1 3 1 1 1 2 4 1 3 1 2 3 6 5 3 2 1 4 3 7 15 10 3 4 3 5 5 16 19 20 19 19
8 8 9 10 9 9 9 8 7 5 4 4 4 4 4 5 6 7 8 11 12 3 7 6 4 6 6 9 15 15 8 4 11 20 21 18 13 13 13 12 12 10 9 9 6 3 2 2 1 1 1 0 0 1 0 1 2 4 2 1 0 2 5 2 2 1 3 6 6 3 4 2 3 5 1 7 18 12 1 3 3 2 6 15 17 18 18 17
8 9 9 9 8 9 8 7 5 4 4 4 4 4 4 5 5 6 7 10 13 8 5 7 2 4 3 2 7 11 8 6 16 20 19 15 11 11 12 10 11 11 11 11 6 1 1 2 2 2 2 1 1 2 0 3 3 4 3 1 0 2 5 3 0 2 3 6 4 3 7 4 2 3 2 13 18 10 2 2 2 3 7 12 13 14 15 15
8 9 9 8 8 8 7 6 5 4 4 4 4 4 4 5 4 5 6 9 13 11 6 3 1 3 4 2 2 5 6 9 17 18 16 14 9 8 11 10 11 10 9 10 7 3 1 0 1 2 0 3 2 1 1 3 1 2 2 2 3 4 5 2 1 1 2 4 1 5 10 2 1 2 7 15 11 5 1 1 2 4 6 8 9 11 12 14
8 8 7 7 8 7 7 6 6 6 5 4 4 4 4 4 3 4 6 10 12 13 16 14 9 8 7 3 4 6 6 11 17 17 14 12 7 6 10 10 10 9 6 8 8 5 3 1 2 1 2 3 2 1 0 2 2 1 3 5 5 6 5 2 2 2 2 3 2 6 10 3 2 2 7 5 3 4 2 3 3 3 5 6 7 9 11 14
7 7 7 8 8 8 8 8 7 6 4 4 3 4 5 4 4 4 5 7 10 12 16 16 14 18 18 11 8 7 6 12 19 19 12 10 6 6 10 9 8 8 5 6 7 6 4 4 5 2 1 1 2 1 1 1 2 2 5 7 3 3 3 2 3 3 4 2 3 5 8 3 2 4 7 4 6 2 3 6 5 4 5 7 8 9 11 13
7 7 8 8 8 9 10 10 8 6 3 3 4 5 7 7 5 4 4 5 6 6 5 4 5 9 15 14 9 5 7 13 21 21 14 9 6 7 12 8 7 9 5 5 6 5 5 5 4 3 2 1 1 0 1 1 2 1 4 7 3 1 1 4 4 1 5 3 1 5 6 3 5 6 4 5 5 4 6 5 5 5 5 7 9 9 9 13
7 8 8 8 8 9 10 10 8 6 3 3 5 8 9 8 6 4 4 5 5 7 6 6 5 4 5 8 5 5 8 14 23 24 17 11 6 7 13 8 5 7 7 7 7 6 7 5 3 4 2 2 2 2 1 0 2 1 1 3 6 4 2 3 2 3 5 3 4 6 7 3 3 4 5 7 4 4 4 3 4 4 6 6 8 8 9 13
7 8 8 7 7 7 9 9 8 6 3 5 7 8 8 7 7 6 5 4 4 5 6 8 9 8 6 4 2 7 12 15 24 28 21 14 7 6 11 8 5 7 9 10 10 8 7 6 7 7 3 3 1 1 2 0 1 3 3 1 4 6 1 2 2 6 7 2 3 5 6 7 8 7 8 6 4 4 3 1 4 4 6 6 8 9 9 12
8 8 7 5 5 7 8 6 6 6 6 6 6 5 5 6 7 8 7 7 5 2 2 3 4 5 6 4 1 8 15 17 24 29 23 17 11 9 10 5 5 7 10 10 9 10 8 6 6 3 1 1 2 3 2 1 2 3 4 3 5 5 6 5 4 4 7 3 2 4 7 9 12 10 7 7 5 4 5 1 4 4 7 7 8 9 9 12
8 7 6 5 6 7 9 12 14 15 13 10 8 4 1 2 5 6 7 7 7 5 3 2 3 2 4 3 3 8 13 15 21 27 23 16 11 11 12 3 2 4 7 10 8 8 9 6 4 1 2 2 3 5 2 1 3 4 5 7 8 7 9 7 3 3 4 5 4 3 7 9 13 14 9 11 8 5 6 2 4 5 7 8 8 9 9 11
7 7 6 6 7 7 11 14 16 19 19 17 17 15 11 5 2 2 1 1 5 7 8 8 5 3 4 4 5 7 10 12 19 26 24 16 9 12 14 5 3 2 5 7 8 5 6 5 1 1 3 4 5 6 4 6 7 6 6 7 9 9 10 7 2 2 2 6 8 7 8 10 14 16 14 14 11 8 8 5 3 5 6 7 8 9 10 10
7 7 7 7 7 6 8 7 8 9 11 11 13 14 17 16 10 7 4 1 1 2 6 10 7 3 4 7 4 8 12 13 17 24 25 18 8 10 14 8 5 2 5 2 6 6 4 2 1 0 4 6 8 8 7 6 7 8 8 8 9 11 9 9 9 4 4 7 9 11 10 11 15 13 13 15 13 10 9 7 4 5 7 8 8 9 9 9
7 6 7 7 7 6 5 5 4 3 3 1 3 4 6 11 15 20 21 12 4 2 3 6 6 2 1 5 7 12 11 8 15 21 25 22 10 6 11 9 4 4 2 0 5 6 3 2 3 4 7 8 8 7 5 4 6 8 9 6 7 11 9 11 11 4 5 8 8 10 11 13 14 11 13 13 11 11 10 7 4 5 7 8 8 9 9 10
6 6 7 8 7 6 4 3 5 6 5 4 3 3 1 1 5 10 16 15 6 4 4 2 2 1 1 2 9 15 7 3 10 19 26 25 11 3 7 7 2 6 6 1 3 3 2 5 7 6 6 7 5 3 2 2 4 6 8 7 7 10 10 13 12 3 4 7 9 11 12 12 11 11 12 11 10 13 12 9 6 5 6 8 9 10 10 10
4 6 7 8 7 7 5 3 1 6 6 5 5 1 0 1 2 2 2 6 4 5 5 2 1 2 2 2 9 14 4 2 5 16 30 25 9 4 7 7 3 7 6 1 1 2 1 7 7 5 5 4 3 0 2 2 4 4 6 8 7 6 10 16 12 2 5 7 9 11 13 9 8 11 11 11 12 14 13 10 8 8 9 9 10 12 11 9
4 5 7 7 7 7 6 5 4 3 3 3 4 4 3 2 6 7 4 4 4 5 3 1 2 3 1 1 9 11 3 3 7 17 31 25 10 5 4 4 6 5 5 2 1 0 5 8 5 4 2 2 1 2 2 3 4 4 4 7 7 7 11 12 5 4 3 7 7 10 11 4 9 10 12 13 12 12 12 12 10 10 11 11 11 11 9 8
3 4 6 7 6 6 6 5 5 6 5 7 10 10 8 7 9 7 3 5 3 2 2 2 3 4 2 2 10 11 3 5 7 14 26 20 8 4 2 5 6 4 6 6 5 5 5 5 4 2 2 3 2 0 3 4 3 4 5 6 8 11 11 7 5 7 9 6 5 9 9 1 7 8 12 13 12 12 14 15 14 12 13 13 11 10 8 9
3 4 5 6 5 3 4 6 5 6 8 11 14 11 9 8 6 4 3 2 2 1 1 1 2 3 3 3 10 8 4 5 3 9 19 15 5 1 2 4 3 5 6 5 5 8 6 3 2 1 2 3 3 2 5 6 5 6 5 5 8 12 12 11 12 16 11 2 2 11 8 3 6 6 10 10 11 13 13 15 15 13 13 12 10 10 10 10
3 4 4 5 6 2 3 4 6 9 10 11 12 10 8 5 2 2 2 1 1 1 0 1 2 3 2 4 11 5 3 3 1 6 12 11 6 2 1 1 3 7 6 3 2 6 6 2 1 1 2 2 3 4 6 7 7 5 3 2 8 13 16 17 16 14 9 1 5 9 8 1 4 7 9 7 10 13 11 13 13 11 11 10 10 10 11 11
3 4 4 5 6 4 1 2 5 8 7 7 8 7 4 2 1 1 1 1 2 1 2 1 1 5 5 6 10 2 3 2 1 5 10 11 6 1 1 1 2 5 3 1 1 2 3 1 2 1 2 2 6 6 4 4 7 5 2 1 8 13 15 17 15 8 5 5 5 5 5 6 3 6 9 8 11 12 11 11 11 9 9 9 10 10 11 11
3 4 4 4 5 4 1 2 5 5 2 3 6 4 2 1 2 1 1 1 2 1 3 3 2 6 6 7 9 1 1 5 3 5 12 12 7 2 1 3 1 3 1 1 1 2 2 1 2 2 2 6 9 7 4 4 5 4 2 5 11 14 14 14 11 5 4 7 4 1 2 7 6 4 8 8 11 11 10 10 9 8 9 10 12 12 10 10
4 4 5 4 4 4 2 3 5 4 2 4 5 3 2 2 1 1 1 1 2 1 1 2 2 4 5 7 10 4 1 7 2 7 13 10 6 2 2 5 1 2 2 1 2 3 1 3 5 3 5 7 7 8 6 3 3 5 7 11 14 13 12 11 8 4 4 4 1 2 4 7 8 2 6 7 8 9 8 9 9 9 10 12 13 12 11 10
5 5 5 4 3 2 3 3 4 5 5 5 4 3 3 1 1 1 1 1 1 1 1 1 2 4 5 4 6 5 2 4 3 7 12 8 8 5 4 4 1 2 2 1 4 2 0 2 3 2 4 5 7 9 4 1 3 8 12 14 12 9 7 7 4 2 3 3 3 8 10 8 10 5 1 2 5 5 6 6 7 9 10 10 10 11 13 13
7 6 5 4 1 2 3 3 5 7 6 5 4 3 2 0 0 1 1 0 1 1 0 2 2 3 6 2 3 5 4 4 2 5 5 4 7 5 4 1 1 3 1 2 5 2 1 1 1 1 3 3 6 7 1 3 5 9 11 12 8 5 3 2 2 2 2 3 4 5 7 7 8 3 3 3 4 5 4 5 8 10 10 10 11 12 14 14
9 8 7 4 2 3 2 4 6 7 6 5 5 3 1 0 1 2 1 0 1 1 1 3 2 2 5 4 3 5 4 3 4 6 6 3 5 5 4 2 2 1 2 4 6 3 2 2 1 1 1 2 4 4 2 3 7 8 8 10 6 1 1 1 2 0 3 6 2 1 7 9 8 3 5 4 5 5 4 6 9 10 11 13 14 15 14 14
12 11 9 6 2 3 3 6 7 7 6 6 4 1 0 0 0 1 1 2 1 2 1 1 2 3 3 2 3 5 3 3 4 4 5 5 7 8 7 6 4 3 3 5 6 3 3 2 1 0 1 2 5 5 1 2 4 7 9 10 9 6 5 4 5 5 6 6 2 7 14 9 6 2 6 6 6 5 3 4 4 7 12 15 16 16 14 14
14 12 8 7 5 5 8 8 7 6 6 4 2 1 2 1 0 1 1 2 1 2 1 0 2 2 2 1 4 4 2 2 4 3 2 3 6 5 5 6 5 4 3 4 6 5 2 3 1 0 2 0 5 6 4 2 6 10 10 10 8 6 6 6 7 7 8 8 8 13 13 6 5 1 8 7 5 4 2 3 2 7 13 16 15 16 15 14
12 11 8 8 7 7 8 6 5 5 5 3 1 1 1 1 1 1 1 1 1 1 1 0 2 1 1 2 3 4 0 2 4 4 3 2 3 4 3 6 9 4 2 2 3 4 3 1 2 3 2 3 6 6 4 3 4 6 6 6 4 2 2 5 6 7 9 12 13 10 5 4 8 2 8 6 5 4 1 4 6 10 13 15 15 15 15 15
6 9 9 10 9 6 4 4 4 5 3 2 2 1 1 1 1 2 0 0 0 1 0 0 1 1 2 2 1 2 1 2 2 3 5 4 3 4 3 5 9 6 2 1 1 1 3 2 2 3 1 5 7 3 1 2 1 2 1 3 5 3 2 5 8 9 10 11 9 4 1 3 3 4 7 5 6 4 3 8 10 12 13 14 16 16 14 14
4 6 9 12 11 7 4 2 3 3 2 1 3 2 1 1 0 1 1 1 0 0 1 1 1 2 1 1 1 1 0 1 1 1 3 3 2 2 1 2 5 5 3 2 1 1 3 2 2 3 2 4 6 2 1 3 2 1 2 4 5 3 3 4 8 9 8 9 6 3 6 7 3 3 6 6 6 4 8 12 12 12 14 16 16 15 13 15
3 2 6 12 12 8 4 2 3 3 2 2 3 2 0 0 1 0 1 0 0 0 1 1 2 3 1 1 1 3 3 1 1 2 1 1 1 2 1 1 1 2 3 2 1 0 3 5 2 2 2 3 2 1 3 3 4 2 3 6 4 2 3 1 6 6 7 9 6 4 9 11 9 4 3 3 8 9 10 12 11 13 16 16 15 13 13 18
2 1 4 11 12 7 4 3 4 3 3 4 3 2 0 1 1 0 1 0 0 0 1 1 1 1 1 1 1 4 5 2 2 2 1 0 1 1 2 1 2 1 2 3 1 2 2 5 1 2 1 1 2 2 2 3 4 5 4 2 2 1 2 3 4 5 8 11 9 8 11 9 7 5 5 7 9 9 11 11 12 17 19 18 15 13 16 21
1 2 2 10 11 6 3 3 4 3 3 3 2 2 1 1 1 1 0 1 0 0 1 1 1 1 1 1 1 1 3 2 2 1 1 1 1 1 1 1 0 2 1 3 1 1 1 3 1 2 1 1 2 1 2 2 4 5 5 2 2 1 3 2 2 3 5 9 11 13 13 7 3 4 9 10 7 8 12 12 13 18 21 20 16 15 19 20
1 1 0 9 10 5 5 5 4 4 3 2 1 1 1 1 2 1 1 1 0 0 1 2 1 0 1 1 1 1 1 1 1 1 1 1 0 1 1 0 1 2 2 1 0 0 1 2 3 1 1 3 0 1 2 1 2 2 3 3 3 1 2 3 3 2 2 6 10 14 13 8 4 3 7 9 6 7 10 12 16 20 21 20 17 18 21 19
1 1 1 11 8 2 4 7 6 3 2 2 2 2 1 2 3 1 0 1 1 1 1 2 1 1 1 1 1 1 0 0 0 1 1 0 0 1 1 0 2 2 1 1 1 1 1 2 4 5 4 3 2 3 1 2 4 4 3 2 3 3 2 3 3 1 1 3 6 10 13 11 4 2 5 7 5 8 12 15 20 21 21 20 18 19 21 17
2 1 3 12 5 5 4 5 3 2 2 2 1 2 1 2 2 1 0 0 0 1 1 2 2 1 1 1 0 2 1 1 0 0 1 0 1 2 2 1 1 2 1 1 1 1 1 1 3 5 7 4 5 5 2 5 9 7 4 2 1 1 2 3 5 3 3 5 5 7 11 10 2 2 6 10 8 10 16 19 22 20 18 18 18 20 19 15
1 2 4 11 2 6 6 4 0 3 3 1 1 1 2 1 2 1 1 0 0 0 1 1 0 0 1 1 1 2 2 1 1 0 1 1 1 3 3 3 2 2 1 0 2 1 1 1 2 5 6 1 5 5 3 5 6 5 4 3 2 1 1 1 3 3 5 7 7 8 10 7 1 1 12 17 11 13 19 22 23 20 16 18 20 19 16 14
1 2 3 10 2 4 1 2 2 1 2 2 2 2 1 1 1 1 1 0 0 1 2 2 1 0 1 1 1 1 1 1 2 0 0 1 1 4 4 3 2 1 1 1 1 0 1 1 2 5 4 1 1 1 1 2 2 1 3 4 2 3 2 1 1 0 3 6 7 9 10 8 6 9 18 20 15 18 22 22 21 18 16 17 18 16 14 14
1 1 1 9 10 4 2 1 3 4 3 2 4 2 1 2 1 1 0 1 1 0 1 2 0 1 2 1 0 1 0 1 1 0 1 0 1 3 3 1 1 1 1 3 2 1 1 1 2 3 5 5 5 5 4 5 5 2 3 4 2 3 3 1 2 2 3 6 7 9 12 15 16 18 22 21 17 21 25 23 20 17 16 17 16 14 13 14
1 1 1 4 8 7 2 1 2 4 4 3 3 2 1 2 1 1 1 1 1 1 1 2 1 1 2 1 2 2 1 1 1 1 1 2 1 2 2 1 0 0 1 2 1 1 0 1 1 1 2 5 7 10 11 9 8 7 4 1 3 3 2 1 3 5 5 9 10 10 14 21 24 23 24 21 19 22 24 23 21 17 18 19 15 12 14 15
1 1 1 1 2 3 3 2 2 3 3 2 2 2 2 2 2 1 1 0 1 1 1 1 1 2 2 2 2 2 1 0 1 1 2 1 1 0 1 1 1 2 2 1 1 0 0 1 2 2 6 9 11 15 15 11 10 11 8 3 5 5 4 4 5 7 6 8 10 11 15 23 24 23 23 20 19 22 21 21 20 18 19 18 13 13 18 19
1 2 0 1 0 1 2 1 1 3 3 1 1 2 3 3 3 2 1 1 1 1 1 1 2 3 2 2 2 2 2 1 1 2 2 1 1 0 2 2 1 2 2 1 0 0 1 1 1 1 7 11 13 15 14 11 9 9 8 7 6 6 7 7 8 8 6 6 12 17 21 23 23 20 18 18 21 22 20 18 18 18 19 16 13 16 19 20
1 2 1 2 1 1 1 1 2 3 4 2 1 1 3 4 4 1 1 2 1 2 2 2 3 3 2 2 1 1 2 2 2 2 2 3 1 1 2 2 2 2 1 1 1 1 1 1 1 1 7 11 12 11 9 7 7 8 8 9 8 7 8 8 9 11 11 14 19 21 23 23 18 13 14 19 21 19 17 16 16 18 19 15 13 17 19 19
1 2 1 1 3 2 1 1 1 2 2 1 1 1 2 4 4 2 1 2 2 3 3 3 3 3 1 2 3 2 3 3 2 3 4 4 2 2 3 2 2 2 1 1 1 1 1 1 2 1 5 7 5 3 3 5 7 10 9 8 8 7 8 9 10 10 12 15 18 19 20 18 11 9 15 21 20 16 17 17 17 18 16 13 14 17 18 19
2 3 4 4 3 1 1 1 0 1 2 1 1 2 2 4 5 4 2 1 1 3 4 3 5 4 2 2 4 4 4 3 2 2 5 4 1 1 2 1 3 4 2 1 1 0 1 1 1 1 5 4 3 1 4 3 3 7 9 9 10 9 7 8 9 10 11 13 16 16 14 12 9 12 19 21 18 18 18 18 18 16 12 12 15 16 17 17
4 3 3 3 3 1 1 1 0 0 1 0 1 2 2 2 3 3 2 1 1 1 1 2 5 4 1 3 5 3 1 1 1 2 2 2 2 2 1 1 3 3 2 3 0 1 0 2 1 1 5 3 1 5 8 1 1 3 4 6 11 10 9 10 10 11 12 12 11 10 10 10 12 16 20 20 18 18 16 16 17 14 11 12 15 16 16 16
Wind_Direction
58 49 52 50 41 40 39 39 44 48 57 63 63 59 46 40 40 40 42 48 57 89 140 162 174 176 197 226 21 16 24 42 47 42 43 15 350 348 342 343 340 336 8 32 63 100 81 75 66 115 162 113 17 340 69 35 357 269 281 305 303 305 322 338 296 315 320 307 322 135 218 254 268 161 152 210 220 231 237 214 188 231 225 258 215 154 150 148
60 53 52 44 37 38 41 42 46 52 58 60 58 53 44 42 43 42 42 54 69 84 112 157 213 224 240 236 287 345 15 35 43 42 24 357 354 353 351 355 354 359 41 47 54 61 71 59 46 81 204 216 23 353 195 358 339 307 343 294 294 323 328 328 296 295 277 299 312 286 234 241 276 84 133 251 241 211 249 228 178 221 209 159 157 158 154 152
59 54 51 40 35 36 42 44 48 54 55 55 51 44 42 46 52 49 48 65 84 84 81 60 345 257 248 245 257 289 271 23 37 24 357 354 356 357 359 6 19 31 45 47 46 64 75 69 70 49 322 58 37 357 300 348 330 349 315 286 307 3 300 254 258 268 262 293 290 280 245 233 260 75 144 261 279 249 248 239 197 225 207 167 160 160 160 159
58 52 45 36 33 37 42 45 49 52 49 49 44 38 41 52 62 54 51 65 89 89 78 65 50 44 192 234 241 238 237 11 35 354 344 354 355 1 4 9 23 29 42 46 49 72 83 76 62 48 335 150 71 302 329 4 352 127 242 295 14 61 296 279 221 276 262 268 281 285 278 261 208 133 220 256 286 268 253 239 229 241 201 163 165 164 165 165
52 46 39 33 34 38 40 45 46 47 45 42 37 34 42 57 67 53 46 52 78 106 91 71 62 60 67 62 238 214 228 207 13 342 344 353 355 4 6 10 20 23 34 39 44 58 72 74 62 63 23 329 61 281 66 49 8 218 218 322 37 197 293 1 97 330 251 242 265 263 274 293 89 171 236 238 260 272 294 253 248 261 197 162 167 168 169 172
48 40 35 34 36 38 40 42 42 42 38 31 32 36 50 62 61 48 39 39 48 115 138 94 74 67 66 61 65 98 159 84 348 336 345 350 354 5 7 15 22 23 34 40 42 40 51 46 293 60 1 307 346 329 70 76 294 265 224 107 194 214 274 317 96 174 213 242 253 261 304 24 108 251 235 227 248 257 42 45 332 311 191 165 165 170 174 175
48 38 36 36 39 40 39 39 38 35 25 23 33 42 61 64 55 46 39 34 30 52 175 160 98 62 60 61 63 66 76 55 340 336 347 350 351 1 6 18 22 28 42 40 32 26 38 2 343 120 256 166 229 178 108 243 203 253 266 125 193 203 253 276 91 231 223 250 266 309 313 292 257 279 21 237 251 253 153 71 24 13 160 162 165 173 174 170
43 38 39 41 42 37 33 35 32 29 28 35 50 61 71 63 57 52 45 37 30 43 158 188 170 37 22 49 62 59 58 1 336 339 349 349 348 356 0 11 16 26 40 41 31 358 52 10 56 179 238 62 208 184 37 278 196 217 261 36 63 223 260 281 104 267 243 254 281 304 279 273 268 308 290 256 264 271 221 115 97 127 154 164 168 170 166 159
39 41 45 45 38 31 32 37 41 50 57 66 74 76 73 58 60 64 54 41 35 52 88 130 131 32 36 63 89 59 28 344 338 344 351 350 346 351 357 6 13 20 36 42 34 10 17 54 120 201 196 85 204 168 25 299 207 203 279 327 285 283 294 305 324 347 271 264 247 266 278 298 107 315 268 256 277 336 74 98 100 137 150 162 159 157 157 148
43 49 50 40 33 40 52 60 68 75 77 83 81 67 57 55 73 84 70 49 47 72 85 79 74 71 72 76 85 66 6 347 353 353 354 353 343 329 348 5 12 18 33 37 34 32 27 75 120 137 75 94 190 158 352 302 13 35 294 286 271 289 305 341 27 33 300 261 193 270 293 313 119 277 272 272 12 24 72 77 76 120 136 140 138 140 145 138
53 57 44 37 48 64 70 68 67 68 74 74 58 50 56 66 88 94 82 58 60 85 91 80 68 72 75 71 70 60 358 353 1 2 2 357 357 341 352 6 14 19 30 32 37 42 51 103 122 124 51 97 166 191 198 312 343 359 307 287 255 250 285 34 51 24 325 281 189 269 286 277 141 237 271 14 45 14 49 69 77 92 120 129 130 133 137 132
63 54 42 50 70 76 67 57 46 39 52 55 56 67 70 72 80 90 80 66 68 75 74 42 40 69 70 62 62 46 2 1 3 9 15 9 22 11 4 13 23 26 34 37 38 50 86 121 115 70 27 272 213 260 138 41 317 323 320 305 303 240 96 51 53 1 313 334 353 279 276 238 191 237 285 43 44 41 63 72 87 105 117 125 132 134 130 124
66 53 54 72 80 72 53 35 18 11 27 61 77 81 75 68 67 84 82 74 83 71 63 57 62 92 70 61 67 29 12 8 7 14 21 21 39 22 15 23 34 37 50 62 61 71 94 96 65 75 48 327 3 17 178 338 305 285 341 310 320 329 109 89 14 316 303 338 1 312 308 311 234 271 20 52 41 39 61 92 110 127 122 127 135 128 119 121
65 60 70 84 78 52 28 17 6 9 55 95 99 87 72 64 65 79 76 76 99 82 75 77 78 84 73 87 126 21 13 12 11 14 16 18 34 24 16 32 63 58 60 66 70 73 89 89 84 101 69 13 5 295 251 316 1 317 311 197 353 349 7 89 36 342 335 16 16 330 313 317 322 347 44 48 26 15 343 124 134 135 124 131 133 121 116 118
64 67 75 74 49 23 26 40 42 52 90 112 114 93 65 66 76 83 74 73 81 71 89 87 77 85 83 96 123 0 7 13 11 10 9 11 24 10 359 35 89 66 61 62 74 70 69 89 82 76 21 336 269 300 283 105 70 0 341 329 348 342 323 1 73 11 351 355 354 344 313 312 325 343 54 53 19 358 320 288 134 127 129 134 126 118 113 109
65 68 66 50 30 38 68 84 86 88 92 97 92 73 46 94 103 91 75 71 58 50 80 42 8 70 95 69 357 355 2 4 4 7 9 12 21 7 2 45 91 57 70 58 69 68 52 70 80 11 5 21 341 329 313 38 29 37 20 334 328 329 325 342 83 85 8 338 321 320 302 307 318 328 18 38 11 343 321 325 122 121 129 130 118 114 110 106
66 63 54 44 39 68 97 94 91 91 89 87 78 69 67 76 174 210 286 63 43 49 68 42 16 102 80 22 358 357 346 340 355 4 8 12 20 14 20 42 6 38 123 53 46 44 23 48 126 212 63 45 8 344 4 19 353 353 2 334 320 317 316 323 352 92 24 333 314 296 285 292 308 325 2 18 1 345 341 357 97 122 125 122 112 111 112 109
69 59 48 43 44 78 121 117 101 99 92 86 74 68 68 66 74 78 60 158 310 28 64 29 13 138 63 22 356 325 319 327 354 3 5 7 9 17 27 33 6 40 159 79 29 15 355 20 233 39 45 29 22 17 25 13 333 330 337 332 322 315 308 308 320 352 347 317 297 298 300 305 317 341 12 12 6 7 7 17 63 116 121 117 111 113 113 106
70 53 42 39 44 70 130 168 177 161 148 95 33 37 59 61 65 64 56 60 65 38 64 7 5 126 24 357 324 318 311 323 0 6 4 1 353 8 26 27 21 45 93 177 22 12 341 25 27 25 20 9 18 25 22 349 310 312 310 303 305 306 300 298 310 3 354 312 290 304 316 317 331 9 20 9 17 22 22 33 58 107 118 116 113 113 107 96
68 47 37 37 46 58 90 167 212 218 223 245 279 335 325 81 54 50 41 47 62 50 62 24 14 83 25 330 328 340 334 313 9 10 3 360 347 339 12 2 5 51 41 336 18 4 309 45 44 26 3 353 5 9 346 300 281 291 292 287 284 288 297 308 318 58 55 330 305 314 323 324 351 30 20 8 23 25 23 35 58 96 106 109 106 99 91 84
62 41 34 37 47 49 59 86 184 216 223 240 239 269 244 226 67 122 34 47 57 31 56 82 27 39 7 315 339 351 342 257 8 10 7 6 349 331 0 353 19 41 23 301 246 275 8 49 38 6 348 333 354 346 229 258 268 277 294 301 293 286 305 308 308 97 74 345 317 325 330 339 34 43 23 22 31 27 23 30 55 86 93 98 96 88 84 81
48 35 35 36 45 46 49 62 69 130 181 191 155 105 89 124 121 133 141 97 60 14 52 96 62 48 341 308 353 347 315 337 360 5 5 4 6 16 355 12 53 42 0 343 209 10 56 51 20 351 339 271 251 175 224 247 258 284 314 315 311 328 322 299 269 130 43 332 321 331 331 4 82 64 42 41 43 40 38 44 59 79 90 91 88 84 75 58
25 28 35 33 38 43 49 60 75 95 114 120 110 102 105 118 128 130 106 104 90 2 8 38 63 35 7 47 359 344 13 26 355 357 358 356 16 38 355 28 55 55 11 12 37 58 58 39 20 355 265 273 281 292 296 275 271 329 345 336 324 335 334 306 297 332 328 313 309 317 314 102 115 87 62 52 52 57 56 60 67 75 86 88 81 69 45 27
11 19 28 30 31 45 67 68 87 102 104 112 107 109 126 125 127 115 82 101 98 91 28 54 120 41 34 24 355 353 72 57 338 342 351 356 8 311 15 35 27 46 34 8 48 79 77 40 30 216 245 293 296 5 360 341 343 352 360 352 328 321 314 298 303 319 319 281 352 331 317 159 136 92 72 63 62 65 64 69 75 80 83 77 59 39 24 13
2 8 19 23 20 38 112 77 86 105 104 108 109 116 129 127 145 116 95 126 65 100 73 131 151 41 34 350 357 2 136 82 43 334 342 360 3 306 52 31 346 32 28 328 59 84 74 67 240 255 236 268 323 14 22 359 335 338 28 5 313 305 301 300 307 323 327 356 46 2 333 306 122 92 78 78 73 67 67 74 78 80 69 47 31 20 10 2
356 1 8 13 15 25 135 97 101 117 107 105 120 130 127 113 139 97 126 126 57 355 347 36 140 13 6 349 354 322 168 51 11 353 358 6 5 252 87 1 14 32 4 315 73 78 71 133 234 306 245 320 8 20 43 5 330 336 63 222 285 293 295 302 315 336 335 319 356 13 329 316 332 95 92 92 85 76 73 74 70 57 40 25 17 8 359 347
354 353 351 358 9 14 15 158 143 142 116 136 151 145 134 142 118 62 294 72 49 339 352 359 330 3 4 351 346 281 120 335 304 28 13 5 353 266 36 20 56 57 13 226 92 60 49 355 12 5 341 20 10 0 26 13 330 330 340 283 286 292 294 301 315 325 303 303 306 233 264 299 319 72 116 110 86 80 73 65 51 33 21 12 5 354 339 320
351 341 339 345 350 10 50 137 147 143 131 159 170 165 165 175 178 302 300 88 31 352 36 359 342 11 2 350 3 61 84 319 332 16 354 2 5 306 53 38 66 74 359 285 38 47 1 349 15 7 12 31 356 332 357 4 311 310 307 296 285 285 290 293 301 292 282 296 300 36 4 309 314 14 141 127 83 79 70 53 33 21 13 1 349 334 320 311
2 345 340 337 330 34 94 127 130 130 135 151 156 156 170 185 251 259 78 133 354 24 121 328 356 9 345 340 19 48 23 352 36 342 338 11 14 3 68 39 96 122 321 358 66 53 63 6 359 344 22 25 325 322 352 119 308 308 293 285 270 254 265 273 282 267 247 288 357 21 15 335 311 321 137 75 58 73 63 47 25 14 2 345 333 325 326 328
13 5 357 336 269 142 123 114 114 126 131 144 152 146 151 16 195 138 76 168 347 22 187 356 1 329 336 354 52 26 19 27 2 323 350 18 348 13 97 300 214 140 283 66 81 76 97 114 247 336 27 2 310 313 44 175 278 291 289 292 273 220 200 207 233 246 253 338 11 23 6 325 302 328 64 23 47 74 48 18 8 1 349 338 333 332 335 337
24 23 15 358 203 191 163 111 116 129 132 140 148 139 115 27 92 112 96 231 354 350 27 28 12 335 8 47 45 8 14 21 356 357 11 358 343 25 66 344 321 99 23 33 34 49 119 157 155 29 356 333 292 281 171 199 269 294 318 332 332 247 173 201 235 286 341 340 13 341 327 307 288 324 89 101 102 98 52 14 358 346 342 339 338 338 339 339
32 26 22 30 110 170 140 130 128 129 134 141 145 133 135 259 2 99 352 307 330 5 36 34 350 6 21 62 33 359 348 5 18 24 7 7 29 38 42 26 341 319 31 25 355 7 127 130 37 207 155 344 312 306 144 183 315 352 2 1 3 2 356 334 334 349 326 319 339 325 322 307 288 343 118 136 136 125 59 28 347 334 340 338 339 340 337 338
37 26 25 47 75 102 112 126 133 131 136 142 134 51 86 109 75 135 296 315 1 15 36 315 325 342 303 339 27 358 329 359 357 13 5 14 47 66 75 44 2 318 355 6 349 355 74 119 62 16 148 322 334 358 19 350 4 18 17 12 14 7 345 321 328 333 309 304 318 319 309 287 311 6 150 154 147 145 52 24 315 336 342 338 340 339 336 342
35 27 32 55 67 85 103 117 126 134 144 141 112 36 80 112 112 141 265 304 358 358 66 315 300 336 27 47 15 326 286 65 0 2 11 15 45 55 66 34 18 357 297 352 19 1 348 28 48 24 353 348 12 26 11 338 14 40 34 22 29 35 325 295 311 319 307 303 309 314 295 285 325 9 151 152 157 170 4 0 342 341 343 341 340 337 339 344
13 21 31 46 50 57 87 115 122 136 153 112 67 65 123 191 202 177 210 315 244 310 85 295 293 57 61 57 40 327 332 49 29 25 24 30 48 28 9 6 8 359 314 349 40 337 299 261 77 54 332 1 19 29 285 309 44 75 48 20 11 350 256 258 273 269 270 285 299 314 289 288 322 122 142 166 186 194 324 342 343 342 342 342 338 336 341 342
329 1 28 37 34 32 51 103 125 138 160 101 70 62 112 164 200 170 117 40 58 27 158 199 358 41 60 341 42 54 324 346 4 39 47 53 67 35 356 337 3 358 350 11 18 341 311 277 74 79 109 42 23 7 14 344 330 25 2 3 3 321 256 281 285 268 266 287 301 311 304 310 335 129 161 198 235 283 331 337 340 338 338 340 338 337 341 339
322 2 37 28 22 30 48 82 132 137 115 75 84 80 27 77 25 41 135 43 50 3 185 168 15 17 6 301 354 352 332 322 331 335 85 100 70 48 352 274 63 359 342 343 171 85 310 296 354 87 123 78 15 351 80 29 325 11 15 343 333 219 188 336 313 307 318 313 301 303 310 316 326 326 176 237 301 318 330 335 335 336 339 340 338 336 338 338
315 113 59 17 12 27 46 79 117 122 90 63 86 116 58 68 33 10 157 73 207 233 48 94 28 358 287 288 350 328 323 340 4 9 94 124 80 92 317 331 115 88 336 304 277 124 261 289 328 114 48 68 144 216 113 70 26 65 83 336 330 272 279 334 319 311 326 321 309 314 319 314 314 322 332 329 323 323 329 334 338 341 341 338 336 338 338 338
327 153 63 5 9 25 36 104 113 80 80 76 101 134 91 97 81 29 231 334 277 176 58 71 13 19 178 268 341 302 321 357 359 1 87 10 32 135 315 333 73 77 8 294 295 107 224 292 349 138 255 294 145 222 286 58 65 90 105 78 40 337 290 305 295 276 310 317 312 315 317 315 317 325 330 331 327 327 334 337 341 343 340 335 335 338 338 339
36 153 328 356 10 51 64 83 81 44 63 86 117 126 81 127 123 57 319 315 321 7 73 141 160 93 172 249 286 258 347 12 322 346 42 14 49 106 94 267 292 19 20 302 238 324 223 251 287 266 245 270 141 58 334 56 72 53 53 34 17 1 234 240 243 227 298 310 314 316 308 303 334 348 331 330 331 339 343 341 339 339 338 335 335 336 338 340
65 155 331 352 356 128 81 60 53 34 78 89 95 112 88 142 133 98 315 304 334 336 56 126 120 99 154 223 210 197 243 338 302 10 40 118 84 47 83 162 288 334 327 216 171 307 288 216 280 307 320 314 69 84 1 71 76 43 28 35 19 12 351 311 299 140 139 269 290 300 289 291 323 36 334 334 347 353 350 343 338 336 336 337 336 335 338 340
60 147 338 350 2 139 85 58 45 17 96 85 66 102 86 124 128 97 187 220 27 14 66 93 76 101 169 241 185 183 201 171 127 174 201 195 33 38 86 137 254 289 290 289 86 33 311 259 275 286 292 317 73 87 61 94 103 92 74 105 130 47 35 335 313 317 298 270 269 275 277 290 317 144 325 339 0 358 348 340 336 335 336 337 335 335 338 339
53 165 356 357 40 136 70 67 127 18 72 108 52 71 46 99 127 138 202 203 35 63 73 94 100 150 195 211 182 193 205 197 216 267 210 210 96 84 119 160 195 221 224 200 105 113 226 234 271 277 270 227 94 93 101 122 130 115 81 92 127 109 83 302 297 323 309 286 296 298 281 282 198 249 325 337 349 347 340 336 335 334 334 337 337 337 340 339
40 183 2 6 15 184 78 92 155 78 98 148 108 87 39 61 96 135 179 135 63 154 121 112 172 207 108 102 183 194 203 209 218 233 166 216 128 102 127 172 207 209 214 19 60 177 216 218 296 312 322 13 93 71 125 203 252 354 83 101 103 103 115 223 207 135 283 267 291 303 284 281 303 316 327 334 336 335 335 334 335 333 333 338 338 337 338 336
83 165 295 12 35 79 99 119 145 132 144 137 106 112 111 89 65 313 118 98 51 118 114 108 141 130 105 94 142 151 79 305 247 141 72 227 160 113 119 183 257 194 35 20 15 272 275 326 332 353 358 342 321 312 310 304 307 328 121 130 113 119 140 221 250 244 271 285 294 286 278 293 308 316 326 334 335 333 333 333 334 334 335 337 336 334 335 333
135 76 264 359 32 57 67 344 77 119 149 145 114 138 173 108 118 301 14 98 125 79 74 95 121 141 127 160 194 179 191 334 38 127 177 205 185 112 104 108 142 215 343 14 346 278 191 246 262 228 255 286 288 284 293 307 302 289 276 174 142 144 155 213 250 257 289 306 290 257 268 295 307 316 326 334 335 332 331 333 334 334 335 335 334 334 333 334
158 100 72 325 19 56 68 36 37 93 142 163 133 148 152 121 132 146 2 27 140 128 62 83 159 192 176 181 193 185 187 174 61 131 166 220 284 104 137 133 157 237 253 243 219 210 107 240 238 215 234 254 271 278 286 296 285 279 285 259 172 165 169 183 230 263 295 309 287 272 290 301 304 314 326 331 330 329 330 332 333 332 332 333 333 333 334 335
36 133 112 320 13 91 80 67 72 85 95 98 87 124 140 142 151 158 121 85 117 216 196 145 207 220 207 201 192 171 181 211 224 190 165 205 264 135 163 172 162 192 201 172 135 93 301 269 172 204 254 263 267 271 276 279 273 270 270 255 222 192 186 200 237 256 255 261 273 288 302 303 300 310 324 328 326 327 327 328 330 330 331 333 335 335 334 333
58 106 63 339 67 118 25 27 93 101 90 82 105 159 168 161 159 156 117 122 147 214 219 212 211 201 185 202 190 179 200 204 223 226 182 166 187 168 179 188 152 147 189 169 70 51 237 226 118 243 277 277 269 266 265 256 258 264 258 248 232 213 217 232 246 251 248 252 265 284 295 295 298 311 323 324 325 324 322 324 328 330 332 337 337 335 331 328
171 150 149 63 85 92 23 20 97 103 80 57 124 165 173 165 164 162 182 190 163 163 197 215 185 151 142 189 196 225 236 212 213 224 181 160 190 207 201 204 149 132 144 141 91 354 290 346 83 153 285 287 267 248 234 227 258 275 268 243 223 229 246 248 250 258 260 261 273 288 292 292 302 324 322 322 324 321 320 326 329 331 335 339 335 331 327 325
100 133 148 118 92 11 348 57 5 91 118 209 171 154 182 188 173 149 139 236 231 172 194 186 149 131 93 185 213 242 252 215 195 195 175 168 187 187 189 211 161 149 127 133 151 355 324 308 96 82 305 290 156 205 276 242 245 273 268 243 221 222 241 241 244 254 259 274 289 294 291 295 315 326 320 320 321 319 322 328 329 329 336 338 331 327 325 325
106 102 131 103 88 312 326 83 259 120 143 152 107 144 188 187 172 150 126 179 228 198 238 171 146 145 153 200 219 242 261 148 101 63 140 143 89 100 112 105 131 136 133 140 110 18 141 271 281 31 303 280 116 323 307 279 179 263 262 225 212 217 244 257 261 262 261 275 289 286 284 294 308 316 317 318 318 320 325 326 325 328 335 334 328 324 324 326